Location: Utrecht
(52.0907°N, 5.1214°E)
Time: 00:27:33
(UTC+02:00)

CUBEBUG 2 - Visible Passes

Search period start: 29 June 2022 00:00
Search period end: 09 July 2022 00:00
Orbit: 582 x 695 km, 97.7° (Epoch: 28 June)

Date Brightness Start Highest point End Pass type
(mag) Time Alt. Az. Time Alt. Az. Time Alt. Az.
29 Jun ? 03:29:58 10° NE 03:32:17 14° E 03:34:35 10° ESE visible
30 Jun ? 03:52:11 10° NE 03:55:32 23° E 03:58:56 10° SE visible
01 Jul ? 04:14:49 10° NNE 04:18:43 37° E 04:22:40 10° SSE visible
03 Jul ? 03:25:42 10° ENE 03:27:48 13° E 03:29:55 10° ESE visible
04 Jul ? 03:47:48 10° NE 03:51:04 22° E 03:54:24 10° SE visible
05 Jul ? 04:10:23 10° NNE 04:14:16 34° E 04:18:12 10° SSE visible
06 Jul ? 04:33:12 10° NNE 04:37:22 57° E 04:41:38 10° S visible
07 Jul ? 03:21:25 10° ENE 03:23:19 13° E 03:25:13 10° ESE visible
08 Jul ? 03:43:23 10° NE 03:46:35 20° E 03:49:50 10° SE visible
